Content
SEND FEEDBACK

Daily
Averages
Monthly
Summary
United States of America

DES PLAINES, ILLINOIS


Home > North America > United States > Illinois
Elevation: 651 feet     Latitude: 42 00N     Longitude: 087 54W

WEATHER
 
SELECT A DAY
Number of Records: 194,962;   Date Range: 7/8/95 - 8/12/14
 
SHARE

PRINT THIS DATA

[ ← Previous Day ]
WEATHER ALMANAC - APRIL 10, 2013
[ Next Day → ]
[ °C ]   °F
Weather ElementAverageHighLow
Temperature38.5 °F39.9 °F (9:52 am)37 °F (4:52 am)
Dewpoint36.8 °F37.9 °F (1:52 am)35.6 °F (6:41 am)
Humidity93.6 %97 % (8:52 am)89 % (3:52 pm)
Barometer29.95 in30.08 in (7:39 am)29.89 in (8:30 am)
Wind Speed12.6 mph19.6 mph (6:41 am)
Wind Gust43.7 mph (7:39 am)
Weather ElementAverage
Visibility7 mi
Wind DirectionENE (53.7 °)

Weather ElementTotal
Precipitation---
Heating Degree Days26.6 (Base 65)
Averaged from 35 records on April 10, 2013
WEATHER CONDITIONS BREAKOUT
WIND DIRECTION BREAKOUT
WEATHER BY HOUR - APRIL 10, 2013
[ °C ]   °F
Local TimeTemperatureDewpointHumidityBarometerVisibilityWind DirectionWind SpeedGust SpeedPrecipitationEventsConditions
1:52 AM39.0 °F37.9 °F96 %29.94 in9.0 miNE (50°)11.5 mph0.00 inOvercast
2:52 AM39.0 °F37.9 °F96 %29.94 in8.0 miNNE (20°)15.0 mph24.2 mph0.00 inRainLight Rain
3:52 AM37.9 °F36.0 °F93 %29.94 in10.0 miNNE (20°)13.8 mph24.2 mph0.00 inRainLight Rain
4:52 AM37.0 °F36.0 °F96 %29.94 in9.0 miNNE (20°)16.1 mph23.0 mph0.00 inOvercast
5:52 AM37.0 °F36.0 °F96 %29.94 in4.0 miNNE (30°)12.7 mph25.3 mphOvercast
6:41 AM37.4 °F35.6 °F93 %29.95 in2.5 miNorth (10°)19.6 mph27.6 mph0.00 inRainLight Rain
6:50 AM37.4 °F35.6 °F93 %29.94 in2.5 miNNE (20°)19.6 mph26.5 mph0.00 inRainLight Rain
6:52 AM37.0 °F36.0 °F96 %29.97 in2.5 miNorth (10°)16.1 mph26.5 mph0.00 inRainLight Rain
7:35 AM37.4 °F35.6 °F93 %29.99 in2.0 miNorth (350°)13.8 mph31.1 mph0.00 inRain-ThunderstormLight Thunderstorms and Rain
7:39 AM37.4 °F35.6 °F93 %30.08 in3.0 miWNW (290°)12.7 mph43.7 mph0.00 inThunderstormOvercast
7:47 AM37.4 °F35.6 °F93 %30.01 in2.0 miENE (70°)8.1 mph19.6 mph0.00 inRain-ThunderstormHeavy Thunderstorms and Rain
7:52 AM37.9 °F36.0 °F93 %29.98 in2.5 miNE (50°)10.4 mph0.00 inRain-ThunderstormThunderstorms and Rain
8:00 AM37.4 °F35.6 °F93 %29.94 in4.0 miENE (60°)9.2 mph0.00 inRain-ThunderstormLight Thunderstorms and Rain
8:22 AM37.4 °F35.6 °F93 %29.91 in10.0 miESE (110°)11.5 mph29.9 mph0.00 inRain-ThunderstormLight Thunderstorms and Rain
8:30 AM37.4 °F35.6 °F93 %29.89 in10.0 miENE (60°)12.7 mph21.9 mph0.00 inRainLight Rain
8:52 AM37.9 °F37.0 °F97 %29.93 in10.0 miEast (80°)5.8 mph17.3 mph0.00 inOvercast
9:52 AM39.9 °F37.9 °F93 %29.91 in10.0 miENE (60°)9.2 mph19.6 mphOvercast
10:52 AM39.9 °F37.9 °F93 %29.97 in10.0 miNorth (10°)11.5 mphOvercast
11:18 AM39.2 °F37.4 °F93 %29.93 in7.0 miNorth (10°)12.7 mph18.4 mphOvercast
11:52 AM39.0 °F37.0 °F93 %29.98 in6.0 miNorth (10°)9.2 mph23.0 mphOvercast
12:52 PM39.0 °F37.0 °F93 %29.95 in10.0 miNNE (20°)16.1 mph24.2 mphOvercast
1:02 PM39.2 °F37.4 °F93 %29.92 in10.0 miNNE (20°)16.1 mph26.5 mphOvercast
1:52 PM39.0 °F37.0 °F93 %30.06 in10.0 miVariable6.9 mph18.4 mph0.00 inOvercast
2:52 PM39.9 °F37.9 °F93 %29.96 in9.0 miNorth (10°)11.5 mph20.7 mph0.00 inRainLight Rain
3:52 PM39.9 °F37.0 °F89 %29.99 in10.0 miNE (40°)11.5 mph21.9 mph0.00 inOvercast
4:52 PM39.0 °F37.0 °F93 %29.99 in10.0 miNNE (30°)8.1 mph20.7 mphOvercast
5:52 PM39.0 °F37.0 °F93 %29.95 in9.0 miNE (40°)12.7 mph20.7 mphOvercast
6:52 PM39.0 °F37.0 °F93 %29.93 in10.0 miNE (40°)12.7 mph21.9 mphOvercast
7:52 PM39.0 °F37.0 °F93 %29.91 in10.0 miNE (50°)13.8 mph20.7 mphOvercast
8:52 PM39.0 °F37.9 °F96 %29.89 in8.0 miNE (50°)15.0 mph21.9 mphOvercast
9:52 PM39.9 °F37.9 °F93 %29.96 in8.0 miNE (50°)10.4 mph0.00 inRainLight Rain
10:18 PM39.2 °F37.4 °F93 %29.90 in2.5 miNE (50°)13.8 mph25.3 mphRainHeavy Rain
10:35 PM39.2 °F37.4 °F93 %29.90 in5.0 miNE (50°)18.4 mph26.5 mphRainLight Rain
10:52 PM39.0 °F37.0 °F93 %29.93 in6.0 miNE (50°)10.4 mph21.9 mphRainLight Rain
11:52 PM37.9 °F37.0 °F97 %29.92 in3.0 miNE (40°)11.5 mph20.7 mphRainRain
Hourly data recorded from KPWK, located miles away from Des Plaines, Illinois







STORIES FROM OUR PARTNERS